Location: Unspecified
(44.0183°N, 0.0000°E)
Time: 02:39:21
(UTC+00:00)

deb HAPS - Visible Passes

Search period start: 04 April 2026 00:00
Search period end: 14 April 2026 00:00
Orbit: 531 x 1278 km, 81.5° (Epoch: 29 March)

Date Brightness Start Highest point End Pass type
(mag) Time Alt. Az. Time Alt. Az. Time Alt. Az.
4 Apr ? 00:55:10 32° ENE 00:55:10 32° ENE 01:01:13 10° NNE visible
4 Apr ? 02:38:19 54° WNW 02:38:19 54° WNW 02:45:55 10° N visible
4 Apr ? 04:22:00 10° WNW 04:24:28 12° NW 04:27:00 10° NNW visible
5 Apr ? 00:59:12 38° ENE 00:59:12 38° ENE 01:05:32 10° NNE visible
5 Apr ? 02:42:20 46° WNW 02:42:28 46° WNW 02:49:54 10° N visible
6 Apr ? 01:03:12 45° ENE 01:03:12 45° ENE 01:09:46 10° NNE visible
6 Apr ? 02:46:20 39° WNW 02:46:38 39° WNW 02:53:53 10° N visible
7 Apr ? 01:07:11 53° ENE 01:07:11 53° ENE 01:13:58 10° NNE visible
7 Apr ? 02:50:19 33° WNW 02:50:50 33° WNW 02:57:47 10° N visible
7 Apr ? 23:28:01 13° ENE 23:28:01 13° ENE 23:30:52 10° NE visible
8 Apr ? 01:11:09 62° ENE 01:11:09 62° ENE 01:18:06 10° NNE visible
8 Apr ? 02:54:17 28° WNW 02:55:03 28° WNW 03:01:39 10° N visible
8 Apr ? 23:31:58 16° ENE 23:31:58 16° ENE 23:35:52 10° NE visible
9 Apr ? 01:15:06 71° NE 01:15:06 71° NE 01:22:12 10° NNE visible
9 Apr ? 02:58:14 24° WNW 02:59:17 24° WNW 03:05:27 10° N visible
9 Apr ? 23:35:54 19° ENE 23:35:54 19° ENE 23:40:31 10° NE visible
10 Apr ? 01:19:02 76° N 01:19:02 76° N 01:26:15 10° N visible
10 Apr ? 03:02:11 20° WNW 03:03:32 21° WNW 03:09:10 10° NNW visible
10 Apr ? 23:39:49 24° ENE 23:39:49 24° ENE 23:44:59 10° NNE visible
11 Apr ? 01:22:57 72° NW 01:22:57 72° NW 01:30:16 10° N visible
11 Apr ? 03:06:05 17° WNW 03:07:48 18° WNW 03:12:47 10° NNW visible
11 Apr ? 23:43:43 28° ENE 23:43:43 28° ENE 23:49:19 10° NNE visible
12 Apr ? 01:26:51 63° WNW 01:26:51 63° WNW 01:34:15 10° N visible
12 Apr ? 03:09:59 14° WNW 03:12:04 15° NW 03:16:16 10° NNW visible
12 Apr ? 23:47:36 33° ENE 23:47:36 33° ENE 23:53:35 10° NNE visible
13 Apr ? 01:30:44 55° WNW 01:30:44 55° WNW 01:38:11 10° N visible
13 Apr ? 03:13:52 11° WNW 03:16:23 12° NW 03:19:28 10° NNW visible
13 Apr ? 23:51:27 39° ENE 23:51:27 39° ENE 23:57:45 10° NNE visible
